TimeMST,TemperatureF,Dew PointF,Humidity,Sea Level PressureIn,VisibilityMPH,Wind Direction,Wind SpeedMPH,Gust SpeedMPH,PrecipitationIn,Events,Conditions,WindDirDegrees,DateUTC
12:53 AM,8.1,3.9,83,30.64,10.0,SW,11.5,-,N/A,,Clear,230,2013-01-16 07:53:00
1:53 AM,7.0,3.9,87,30.66,10.0,SW,12.7,-,N/A,,Partly Cloudy,230,2013-01-16 08:53:00
2:09 AM,8.6,3.2,79,30.42,10.0,SW,13.8,-,N/A,,Mostly Cloudy,230,2013-01-16 09:09:00
2:53 AM,10.0,6.1,84,30.64,10.0,SW,15.0,-,N/A,,Overcast,230,2013-01-16 09:53:00
3:53 AM,10.9,7.0,84,30.64,10.0,SW,18.4,-,N/A,,Overcast,230,2013-01-16 10:53:00
4:53 AM,10.9,8.1,88,30.65,10.0,SW,18.4,-,N/A,,Overcast,230,2013-01-16 11:53:00
5:31 AM,10.4,8.6,92,30.41,10.0,WSW,19.6,-,N/A,,Overcast,240,2013-01-16 12:31:00
5:53 AM,10.9,8.1,88,30.66,9.0,SW,20.7,-,N/A,,Overcast,230,2013-01-16 12:53:00
6:08 AM,10.4,8.6,92,30.41,8.0,SW,18.4,-,N/A,,Overcast,230,2013-01-16 13:08:00
6:53 AM,10.0,7.0,87,30.67,10.0,SW,17.3,-,N/A,,Overcast,220,2013-01-16 13:53:00
7:51 AM,10.4,6.8,85,30.43,1.8,SW,15.0,-,N/A,,Overcast,230,2013-01-16 14:51:00
7:53 AM,10.0,7.0,87,30.69,1.8,SW,16.1,-,N/A,,Overcast,230,2013-01-16 14:53:00
8:14 AM,8.6,6.8,92,30.44,3.0,SSW,10.4,-,N/A,,Overcast,200,2013-01-16 15:14:00
8:45 AM,8.6,6.8,92,30.45,0.8,SSW,13.8,-,N/A,,Overcast,200,2013-01-16 15:45:00
8:53 AM,9.0,7.0,92,30.70,0.2,SSW,15.0,-,N/A,Fog,Light Freezing Fog,200,2013-01-16 15:53:00
9:21 AM,10.4,6.8,85,30.46,1.0,SSW,9.2,-,0.00,Snow,Light Snow,200,2013-01-16 16:21:00
9:31 AM,10.4,6.8,85,30.47,2.0,SSW,10.4,-,0.00,,Overcast,200,2013-01-16 16:31:00
9:40 AM,10.4,6.8,85,30.47,0.8,SSW,13.8,-,0.00,,Mist,210,2013-01-16 16:40:00
9:53 AM,10.9,8.1,88,30.73,1.2,SSW,12.7,-,0.00,,Overcast,210,2013-01-16 16:53:00
9:55 AM,10.4,8.6,92,30.47,2.5,SSW,11.5,-,N/A,,Overcast,200,2013-01-16 16:55:00
10:02 AM,10.4,8.6,92,30.47,7.0,SSW,12.7,-,N/A,,Overcast,200,2013-01-16 17:02:00
10:53 AM,12.9,10.0,88,30.73,9.0,SW,12.7,-,N/A,,Scattered Clouds,220,2013-01-16 17:53:00
1:53 PM,21.9,14.0,72,30.63,10.0,SW,12.7,-,N/A,,Clear,220,2013-01-16 20:53:00
2:53 PM,24.1,14.0,65,30.61,10.0,WSW,11.5,-,N/A,,Clear,240,2013-01-16 21:53:00
3:53 PM,23.0,14.0,68,30.61,10.0,WSW,10.4,-,N/A,,Clear,240,2013-01-16 22:53:00
4:53 PM,21.9,12.9,68,30.61,10.0,WSW,11.5,-,N/A,,Clear,250,2013-01-16 23:53:00
5:53 PM,21.0,12.0,68,30.63,10.0,SW,5.8,-,N/A,,Clear,230,2013-01-17 00:53:00
6:53 PM,19.0,12.0,74,30.65,10.0,Calm,Calm,-,N/A,,Clear,0,2013-01-17 01:53:00
7:53 PM,12.9,8.1,81,30.69,10.0,North,4.6,-,N/A,,Clear,360,2013-01-17 02:53:00
8:53 PM,14.0,8.1,77,30.70,10.0,North,3.5,-,N/A,,Clear,360,2013-01-17 03:53:00
9:53 PM,10.9,6.1,81,30.71,10.0,NNE,6.9,-,N/A,,Clear,20,2013-01-17 04:53:00
10:53 PM,9.0,5.0,84,30.70,10.0,Calm,Calm,-,N/A,,Clear,0,2013-01-17 05:53:00
11:53 PM,10.0,6.1,84,30.69,10.0,SSE,3.5,-,N/A,,Clear,160,2013-01-17 06:53:00